Vorticity
6 6 6 7 8 7 2 -1 1 4 6 6 5 3 2 7 10 10 5 4 3 2 1 0 1 3 4 4 4 3 3 2 2 2 2 2 2 2 2 2 2 2 2 1 1 1 1 2 3 4 5 5 6 6 6 6 6 6 6 6 6 6 6 6 6 6 6 6 6 6 7 6 6 6 5 4 4 3 3 3 3 3 3 3 4 4 4 4 4 4 3 3 3 3 3 3 3 3 3 3 3 3 3
5 6 6 6 7 7 5 0 0 3 5 6 5 4 2 5 9 11 7 4 3 2 1 -0 0 2 3 3 3 3 3 2 2 2 2 2 2 2 1 1 2 2 3 2 1 1 1 1 2 2 3 4 5 6 6 6 6 6 6 6 6 6 6 6 7 7 6 6 6 7 7 7 6 6 5 5 4 3 3 3 3 3 3 3 4 4 4 4 4 4 4 3 3 3 3 3 3 3 3 3 3 3 3
4 6 6 6 7 8 7 2 0 2 4 5 5 4 3 3 7 11 10 6 4 3 2 0 -0 1 3 3 3 3 3 2 2 2 2 2 2 1 1 1 1 2 3 3 2 1 1 1 1 2 2 3 4 4 5 6 6 6 6 6 6 6 6 6 7 7 7 7 7 7 7 7 7 6 6 5 4 4 3 3 3 3 3 3 3 4 4 4 4 4 4 3 3 3 3 3 3 3 3 3 3 3 3
4 6 6 6 6 7 8 4 2 2 3 5 5 5 4 3 5 9 11 7 5 3 3 1 0 1 3 4 3 3 2 3 3 3 3 2 2 1 1 1 2 3 3 3 2 2 1 1 1 2 2 3 3 3 4 5 5 6 6 6 6 6 6 6 7 7 7 7 7 7 7 7 7 6 6 5 5 4 4 3 3 3 3 3 3 4 4 4 4 4 4 4 3 3 3 3 3 3 3 3 3 3 3
4 5 7 6 6 6 8 5 2 1 3 4 5 4 3 3 4 7 12 9 6 4 3 1 1 1 2 4 4 3 3 3 3 3 3 3 2 2 1 2 2 3 3 3 2 2 1 1 1 2 2 2 3 3 3 4 4 5 6 6 6 6 7 7 7 7 7 7 7 7 7 7 7 7 6 6 5 5 4 4 4 3 3 3 3 3 4 4 4 4 4 3 3 3 3 3 3 3 3 3 3 3 3
5 5 7 6 6 6 8 6 2 -0 2 4 5 5 3 3 4 6 11 10 7 4 3 1 0 1 2 4 5 5 4 3 3 3 3 3 2 1 1 2 2 2 2 2 2 2 2 1 2 2 2 2 3 3 3 3 3 4 5 6 6 6 7 7 7 7 7 7 7 7 7 7 7 7 7 6 6 5 5 4 4 4 3 3 3 3 3 3 4 4 3 3 3 3 3 3 3 3 3 3 3 3 3
7 6 6 7 6 5 6 8 4 1 2 4 5 5 4 3 4 5 8 11 9 5 3 1 -0 -0 1 3 4 5 4 4 3 3 3 2 1 0 0 1 1 2 2 2 2 2 2 2 2 2 2 2 2 3 3 3 3 3 4 5 5 6 6 7 7 7 7 7 7 7 7 7 7 7 7 7 6 6 5 5 4 4 4 3 3 3 3 3 3 3 3 3 3 3 3 3 3 3 3 3 3 3 4
9 7 6 7 6 5 5 7 5 2 0 5 6 5 4 3 3 4 6 11 10 7 3 2 0 -1 -1 1 3 5 5 4 3 1 1 1 1 0 -0 -0 0 1 1 2 2 2 2 2 2 2 2 2 2 3 3 3 3 3 3 4 5 5 6 7 7 7 7 7 7 7 7 7 7 7 7 7 7 6 6 5 4 4 4 3 3 3 3 3 3 3 3 3 3 3 3 3 3 3 3 3 3 3 4
13 10 8 7 7 6 5 7 6 4 -2 3 5 6 4 3 3 3 5 9 11 9 4 3 2 0 -2 -1 1 3 5 4 2 1 -0 -0 0 -0 -0 -0 0 1 1 2 2 2 2 2 2 2 2 2 2 3 3 3 4 3 3 3 4 5 5 6 7 7 7 7 7 7 7 7 7 7 7 7 7 6 6 5 5 4 4 4 3 3 3 3 3 3 3 3 3 3 3 3 3 3 3 3 3 3 4
16 13 9 8 7 6 5 6 6 5 -0 0 4 6 5 3 3 3 4 7 11 11 6 4 3 2 -1 -2 -1 0 2 3 2 0 -1 -0 -0 0 0 0 1 1 1 2 2 2 2 2 2 2 2 2 2 2 3 3 4 4 4 4 4 4 5 5 6 7 7 8 8 8 8 7 7 7 7 7 7 6 6 5 5 4 4 4 3 3 3 3 3 3 3 3 3 3 3 3 3 3 3 3 3 3 3
19 15 12 8 6 5 4 5 6 5 3 1 3 6 5 5 3 2 4 6 10 12 9 5 3 2 1 -1 -2 -2 -1 0 1 0 -0 -0 0 1 1 1 1 2 2 2 2 2 3 2 2 2 2 2 2 2 3 3 4 4 4 4 4 4 4 5 5 6 7 7 8 8 8 8 7 7 7 7 6 6 6 5 5 4 4 4 3 3 3 3 3 3 3 3 3 3 3 3 3 3 3 3 3 3 3
24 18 14 9 6 5 4 4 5 5 5 2 2 4 5 5 4 2 2 5 8 11 12 7 4 2 3 1 0 -1 -1 -1 -0 0 0 1 1 1 1 1 2 2 2 2 2 2 3 2 2 2 2 2 2 2 2 3 4 4 4 4 4 4 4 4 5 6 6 7 8 8 8 8 8 7 7 6 6 6 6 5 5 4 4 4 3 3 3 3 3 3 3 3 3 3 3 3 3 3 3 3 3 3 3
29 23 17 10 7 5 5 4 4 5 5 2 2 4 5 5 4 3 1 3 6 10 13 9 5 3 2 2 2 2 1 1 1 1 1 1 2 2 2 2 2 2 2 2 2 2 2 3 3 2 2 2 2 2 2 3 3 4 4 4 4 4 4 4 5 5 6 7 7 8 8 8 8 7 7 6 6 6 5 5 5 4 4 4 3 3 3 3 3 3 3 2 2 2 2 2 2 3 3 3 3 3 3
32 28 20 13 9 6 6 5 4 4 5 2 2 3 6 5 5 4 1 1 4 9 13 11 7 4 2 2 3 3 3 2 2 2 3 2 2 2 2 2 2 2 2 2 2 2 3 3 3 3 2 2 2 2 2 3 3 3 4 4 4 5 5 5 5 5 5 6 7 7 8 8 8 7 7 6 6 5 5 5 5 4 4 4 3 3 3 3 3 3 3 2 2 2 2 2 2 2 2 2 3 3 3
32 33 26 17 11 7 6 5 4 4 5 4 2 2 5 4 5 5 3 1 3 7 11 12 9 6 3 2 2 3 3 3 2 3 4 3 3 2 2 2 2 2 2 2 2 2 2 3 3 3 3 2 2 2 2 3 3 3 3 4 4 5 5 5 5 5 5 6 6 7 8 8 8 7 7 6 6 5 5 5 5 4 4 4 3 3 3 3 3 3 3 3 2 2 2 2 2 2 2 2 2 3 3
28 34 33 22 14 8 6 5 3 3 4 5 3 2 3 3 4 5 4 2 1 4 10 13 11 8 4 3 2 2 3 3 2 2 3 4 3 2 2 2 2 2 2 2 2 2 2 3 3 3 3 3 2 2 2 2 3 3 3 3 4 4 5 5 5 5 6 6 6 7 7 8 8 8 7 6 6 6 5 5 5 4 4 4 4 3 3 3 3 3 3 3 3 3 3 2 2 2 2 2 2 3 3
21 31 37 28 18 9 6 4 3 2 1 3 3 3 3 2 3 4 4 3 0 1 8 12 13 11 6 4 3 2 2 2 2 2 1 3 3 2 2 1 1 1 2 2 2 2 2 2 3 3 3 3 3 2 2 2 3 3 3 3 3 4 5 5 6 6 6 7 7 7 7 7 7 7 7 7 6 6 6 5 5 5 4 4 4 3 3 3 3 3 3 3 3 3 3 3 2 2 2 2 2 3 3
14 25 37 33 23 12 6 4 3 3 1 2 3 4 4 3 3 3 5 3 1 -1 2 9 13 13 8 5 3 2 2 2 3 2 1 2 2 2 2 1 1 2 2 2 2 2 2 2 2 3 3 3 3 3 3 3 3 3 3 3 3 3 4 5 6 7 7 7 7 7 7 7 7 7 7 7 6 6 6 5 5 5 4 4 4 3 3 3 3 3 3 3 3 3 3 3 3 3 3 3 3 3 3
9 18 32 36 29 17 7 5 4 3 2 1 3 4 4 4 4 4 6 4 3 1 -1 6 11 13 11 7 4 3 2 2 3 3 2 2 2 2 2 1 2 2 2 2 2 2 2 2 2 2 3 3 3 3 3 3 3 3 3 3 3 3 4 5 6 7 7 7 7 7 6 6 7 7 7 7 7 6 6 5 5 5 5 4 4 3 3 3 3 3 3 3 3 3 3 3 3 3 3 3 3 3 3
6 12 25 35 33 23 9 5 4 3 2 1 2 3 3 3 3 4 7 7 6 4 -2 3 9 14 13 9 5 3 2 2 2 3 3 3 3 3 2 2 2 2 2 2 2 2 2 2 2 2 3 3 3 3 3 3 3 3 3 3 3 3 3 4 5 6 7 6 6 6 6 6 6 7 7 7 7 6 6 5 5 5 5 4 4 3 3 3 3 3 3 3 3 3 3 3 3 3 3 3 3 3 3
6 8 17 32 35 29 14 7 4 3 2 1 1 3 3 2 2 3 4 7 9 8 2 -0 5 12 14 11 7 4 3 4 4 3 3 3 3 3 3 3 2 2 2 2 2 2 2 2 2 2 3 3 3 3 3 3 3 3 3 3 3 3 2 3 4 5 5 6 6 6 6 6 6 6 7 7 7 7 6 5 5 5 5 4 4 4 3 3 3 2 2 2 3 3 3 3 3 3 3 3 3 3 3
8 7 11 26 34 34 20 9 4 3 3 1 1 3 5 2 1 1 1 4 8 10 8 1 2 8 15 13 8 3 1 7 7 4 4 4 4 4 3 3 3 2 2 2 2 2 2 2 2 2 2 3 3 3 3 4 4 4 4 4 4 3 3 3 3 4 5 5 5 6 6 6 6 6 7 7 7 7 6 5 5 5 5 5 4 4 4 3 3 3 2 2 2 2 2 3 3 3 3 3 3 3 3
10 7 8 20 31 36 27 12 4 2 6 2 0 2 6 4 2 0 1 2 4 7 11 7 3 3 12 14 9 2 -1 6 6 5 5 5 5 4 4 3 3 3 3 3 3 2 2 2 2 2 2 3 3 3 3 3 4 4 4 4 4 4 4 3 2 3 4 5 6 6 7 7 7 7 7 7 7 7 7 6 5 5 5 5 5 4 4 4 3 3 3 2 2 2 2 2 3 3 3 3 3 3 3
12 9 7 15 27 36 33 16 5 2 7 2 -0 1 5 5 2 -0 0 1 1 3 8 11 6 2 6 14 12 6 1 2 4 4 4 6 6 6 5 4 3 3 3 3 3 3 2 2 2 2 3 3 3 3 3 3 4 4 4 4 4 4 4 2 2 3 3 4 5 6 7 7 7 7 7 7 7 7 7 7 6 5 5 5 5 5 4 4 4 3 3 3 3 3 2 2 3 3 3 3 3 3 3
12 10 7 11 23 34 37 21 9 3 5 4 1 -1 4 7 4 0 0 1 1 1 3 10 8 5 4 13 14 10 4 1 2 3 4 4 6 8 8 6 5 4 4 4 3 3 3 3 3 3 3 3 3 3 3 3 4 4 4 4 4 4 4 3 3 2 3 4 5 6 7 7 8 8 7 7 7 7 7 7 7 6 5 5 5 5 5 4 4 4 4 3 3 3 3 3 3 3 3 3 3 3 4
12 10 8 10 19 31 39 25 11 2 4 8 3 -1 2 8 6 1 -1 1 2 1 -0 5 7 6 4 11 14 12 6 2 0 1 2 2 4 8 10 9 8 7 6 5 4 4 3 3 3 3 3 3 3 3 3 3 4 4 4 4 4 4 4 3 3 3 2 3 4 5 6 7 7 8 8 8 8 7 7 7 7 7 6 6 5 5 5 5 5 5 4 4 4 4 3 3 3 3 3 3 3 4 4
12 11 8 9 16 28 39 29 13 0 0 6 3 -2 1 7 6 2 -0 1 2 1 -2 0 4 5 2 9 13 14 10 4 0 -1 -1 -0 2 5 10 10 10 9 8 6 5 4 4 4 4 4 4 3 3 3 3 3 4 4 4 4 4 3 3 3 3 3 2 2 3 3 4 6 7 7 8 8 8 8 8 8 7 7 7 6 6 5 5 5 5 5 5 5 5 4 4 4 4 4 4 4 4 4 4
12 10 8 8 14 24 37 33 19 5 1 3 0 -3 0 8 7 3 1 1 2 1 -1 -1 2 5 3 8 13 15 13 8 3 -0 -3 -2 -1 1 5 8 9 9 8 7 6 5 5 4 4 4 4 4 3 3 3 3 4 4 4 3 3 3 3 3 3 2 2 2 2 3 3 4 5 6 8 8 8 8 8 8 8 8 7 7 7 6 5 5 5 5 5 5 5 5 5 5 4 4 4 4 4 5 5
13 10 9 8 13 21 34 35 24 11 3 3 -1 -4 -0 8 8 5 3 4 4 2 1 0 3 6 7 8 12 16 16 11 6 3 -1 -1 -3 -4 -2 2 4 6 7 7 6 6 5 5 5 4 4 4 4 4 3 3 3 3 3 3 3 3 3 3 3 3 2 2 2 2 2 3 4 5 6 7 8 8 8 8 8 8 8 8 8 7 7 6 5 5 5 5 6 6 6 5 5 5 5 5 5 5 5
15 10 9 8 11 19 31 35 28 15 5 3 -2 -5 -2 8 9 5 2 7 7 6 3 1 3 6 8 8 12 17 18 13 8 5 4 5 2 -3 -5 -3 -0 2 4 5 5 5 5 5 4 4 4 4 4 4 3 3 3 3 3 3 3 3 3 3 3 2 2 2 2 2 2 2 3 3 4 6 7 8 8 8 8 8 8 8 8 8 8 7 6 6 6 6 6 6 6 6 6 6 5 5 6 6 6
16 11 8 8 10 17 27 35 30 19 7 4 -2 -7 -7 6 9 6 -1 6 10 11 6 2 2 3 2 6 11 16 18 15 9 5 4 8 8 4 -0 -2 -1 0 2 2 3 4 4 4 4 4 3 3 4 4 3 3 3 3 3 3 3 3 3 3 3 2 2 2 2 2 2 2 2 2 3 4 5 6 7 8 8 8 8 8 8 8 8 8 7 7 6 6 6 6 6 6 6 6 6 6 6 6 6
17 11 8 7 10 16 25 34 32 23 9 5 -1 -8 -14 2 8 6 -4 2 11 15 10 5 3 2 -2 -2 5 13 17 15 10 5 4 5 7 8 6 3 2 1 2 2 2 3 3 3 3 3 3 3 3 3 3 3 3 3 2 2 3 3 3 3 3 3 3 2 2 2 2 2 2 2 2 3 4 5 6 7 7 8 8 8 8 8 8 8 8 8 7 7 7 6 6 7 7 6 6 6 6 6 6
17 11 8 8 10 15 23 33 33 26 12 6 -0 -7 -15 -1 8 7 -5 -1 10 19 16 8 4 2 -1 -2 3 10 17 17 11 6 7 4 4 5 7 6 5 4 3 3 3 3 3 2 2 2 2 3 3 3 4 3 3 2 2 2 2 2 3 3 3 3 3 3 2 2 2 2 2 2 2 2 3 4 4 5 6 7 7 8 8 8 8 8 8 8 8 8 7 7 7 7 7 7 7 6 6 6 7
16 12 8 8 10 15 23 32 34 28 15 7 1 -5 -15 -1 9 10 -3 -3 11 25 23 11 5 2 -1 -2 2 8 17 18 14 9 7 5 3 2 4 5 5 5 4 4 4 3 3 3 2 2 2 3 3 4 4 4 3 3 2 2 2 2 3 3 3 3 3 3 3 2 2 2 2 3 2 2 3 3 4 4 5 6 7 7 7 8 8 8 8 8 8 8 8 7 7 7 7 7 7 7 7 6 6
15 12 9 9 11 16 22 32 34 30 16 7 1 -6 -13 1 12 14 1 -4 6 20 24 16 9 4 0 -2 -1 3 11 17 18 15 11 8 5 3 2 2 3 3 3 4 4 4 4 3 3 2 3 3 4 4 4 4 4 3 3 2 2 2 3 3 3 3 3 3 3 3 2 3 3 3 3 3 3 3 3 4 4 5 6 6 7 7 8 8 8 8 8 8 8 7 7 7 7 7 7 7 7 6 6
15 11 10 10 12 16 22 31 34 30 18 8 1 -5 -13 1 15 20 9 -2 -2 6 18 18 13 7 2 -3 -6 -4 1 10 15 17 15 13 10 7 3 2 1 1 2 2 3 4 4 4 3 3 3 3 4 4 5 5 5 4 4 3 3 2 2 3 3 3 3 3 3 3 3 3 3 3 3 3 3 3 3 4 4 4 5 6 6 7 7 8 8 8 8 8 7 7 7 7 7 7 7 7 7 7 6
15 10 9 10 13 17 23 30 33 30 19 8 3 -3 -17 -5 11 21 16 -0 -6 -2 11 16 15 10 3 -2 -6 -8 -7 0 8 13 15 15 15 13 7 4 1 0 0 1 2 3 4 4 4 3 3 3 4 4 5 5 5 5 5 4 4 3 3 3 3 3 3 3 2 3 3 3 3 3 4 4 4 4 4 4 4 4 5 5 6 6 7 7 8 8 8 7 7 7 7 7 7 7 7 7 7 7 7
15 10 10 11 14 17 22 31 32 28 20 11 4 -4 -18 -12 2 16 21 3 -8 -10 -1 6 11 12 7 0 -4 -7 -7 -3 2 7 10 12 16 18 12 7 3 0 -1 0 2 3 5 5 4 4 4 3 4 4 4 5 5 6 5 5 5 4 3 3 3 3 3 3 2 2 3 3 3 3 4 4 4 4 4 4 4 4 4 5 5 5 6 7 7 7 8 7 7 7 7 6 7 7 7 7 7 7 7
16 11 11 12 14 17 21 30 32 28 17 14 8 -3 -19 -17 -4 14 29 17 0 -12 -12 -4 3 8 8 3 -2 -5 -4 -0 2 4 4 8 14 18 15 9 5 2 0 0 2 3 5 5 5 5 4 4 3 3 4 4 5 6 6 6 5 5 4 3 3 3 2 2 2 2 3 3 3 4 4 4 5 5 4 4 4 4 4 5 5 5 6 6 7 7 7 7 7 7 7 6 6 6 7 7 7 7 7
17 13 13 13 15 17 21 28 31 28 18 15 10 -1 -20 -20 -7 11 30 30 15 -4 -16 -13 -8 -1 4 5 2 -0 1 4 6 5 4 7 12 16 17 12 9 5 2 1 1 2 4 4 4 4 4 4 3 3 3 4 5 5 6 6 5 5 5 4 3 3 3 2 2 2 2 3 3 4 4 5 5 5 5 5 5 5 6 6 6 6 6 6 7 7 7 7 7 7 7 6 6 6 6 7 7 7 8
18 15 14 15 16 18 21 27 29 27 20 15 10 -0 -19 -21 -8 9 23 31 24 7 -11 -16 -12 -4 4 8 8 7 8 11 12 10 8 9 11 13 15 16 14 10 6 3 1 1 2 3 3 3 4 3 3 2 2 3 4 5 5 5 5 5 5 4 4 3 3 3 2 2 2 3 3 4 4 5 5 5 5 5 5 5 6 6 6 5 5 6 6 7 7 7 8 8 7 7 6 6 6 6 7 7 8
18 16 15 16 17 19 21 26 28 27 22 17 11 0 -18 -18 -9 4 11 25 28 19 2 -6 -5 1 8 10 11 12 14 18 18 17 13 11 9 10 13 19 20 18 13 7 3 1 1 1 2 2 2 2 2 1 2 2 3 4 4 4 5 5 5 4 4 3 3 3 2 2 2 3 3 4 4 4 5 5 5 5 5 4 4 3 3 3 3 4 5 6 7 8 8 8 8 7 7 6 6 6 6 7 7
18 16 16 17 18 20 22 25 26 25 23 17 11 -0 -20 -18 -13 -8 -6 14 28 32 20 8 2 2 7 7 6 5 8 16 20 21 17 10 6 6 10 16 21 24 24 17 10 4 1 1 1 1 1 1 1 1 1 2 2 3 3 3 4 4 4 4 4 3 3 3 2 2 3 3 3 4 4 4 4 5 5 5 5 4 3 2 2 2 2 3 3 4 5 7 7 8 8 8 7 7 6 6 6 7 7
17 16 15 17 19 21 23 25 25 25 22 18 12 1 -18 -19 -20 -20 -19 1 21 33 31 18 7 2 4 4 -1 -5 -3 8 17 21 19 11 7 6 9 13 13 12 16 19 17 11 4 2 2 2 1 1 0 0 1 1 1 2 2 2 3 3 3 3 3 3 3 3 3 3 3 3 4 4 4 4 4 4 4 5 5 5 5 4 4 4 4 3 3 3 4 4 5 6 7 7 7 7 7 7 6 7 7
17 16 16 17 19 22 23 25 25 24 22 20 14 3 -15 -21 -25 -25 -22 -5 14 29 30 19 8 2 3 5 -1 -7 -5 8 17 20 19 14 11 10 11 18 15 8 4 11 15 15 9 7 6 6 3 2 2 1 1 1 1 1 1 1 2 2 3 3 3 3 3 3 3 3 4 4 4 4 4 4 4 4 4 4 5 5 5 5 5 5 5 4 4 3 3 3 4 4 5 6 6 7 7 7 7 6 7
17 18 17 18 20 22 24 25 24 22 21 22 16 4 -14 -22 -26 -25 -20 -4 18 34 33 19 8 0 -2 3 -1 -6 -6 9 17 19 15 12 11 11 10 14 14 13 12 15 17 17 14 12 10 9 7 5 5 4 2 2 1 1 1 1 1 1 2 3 3 3 3 3 3 3 4 4 4 4 4 3 4 4 4 4 4 5 5 5 5 5 5 4 4 4 4 4 4 4 4 5 5 6 6 6 6 6 7
17 20 20 20 20 21 24 26 24 21 19 21 14 2 -14 -21 -24 -24 -20 -1 26 46 45 31 15 2 -6 -3 -4 -8 -14 -2 8 13 10 8 8 9 10 10 11 13 19 23 23 21 16 13 11 9 8 8 7 7 5 3 2 1 1 1 1 1 2 2 2 3 3 3 3 3 4 4 3 3 3 3 3 4 4 4 4 5 5 5 5 5 5 4 4 4 4 4 4 4 4 4 4 5 6 6 6 6 7
16 21 23 22 21 22 24 25 24 22 20 19 11 -1 -11 -16 -20 -23 -24 -1 28 50 52 47 35 20 4 0 -2 -7 -17 -18 -10 -1 5 5 7 10 14 16 17 19 22 26 26 23 20 14 10 8 7 7 7 7 6 4 3 2 1 1 1 1 1 2 2 2 2 2 3 3 3 3 3 3 3 3 4 4 4 4 5 5 5 5 5 5 5 4 4 4 3 3 3 4 4 4 4 5 6 6 6 7 7
14 20 25 24 23 22 24 25 24 22 21 19 10 -1 -9 -12 -18 -25 -32 -6 18 36 42 52 50 41 26 16 10 3 -7 -17 -20 -15 -2 6 10 12 17 20 23 24 23 24 25 24 22 18 14 10 7 6 5 5 5 4 3 2 1 0 -0 -0 -0 0 0 1 1 2 3 3 4 3 3 3 3 4 4 4 4 5 5 5 5 5 5 5 4 4 4 4 3 3 3 3 4 4 4 5 6 6 7 7 7
13 18 25 26 25 23 23 24 23 21 21 20 11 0 -8 -12 -21 -32 -41 -13 7 19 24 43 52 50 38 30 24 18 11 2 -7 -13 -13 -1 4 6 8 10 14 18 22 22 23 24 23 20 17 13 10 7 5 3 3 4 3 2 1 -1 -2 -2 -2 -1 -1 -0 1 2 3 4 4 4 4 4 4 4 4 4 4 4 5 5 4 4 4 4 4 4 4 4 4 4 4 4 4 4 4 5 5 6 6 7 7
12 15 22 26 26 25 23 23 22 20 20 19 12 3 -6 -12 -25 -40 -48 -20 1 12 12 28 44 51 42 34 30 29 28 25 19 11 -1 -6 -12 -16 -16 -11 -2 8 19 20 20 21 23 21 18 14 13 11 7 3 2 3 4 4 2 -1 -2 -2 -2 -2 -2 -1 -0 1 2 3 4 4 4 3 4 4 4 4 4 4 4 4 4 4 4 4 4 4 4 4 4 4 4 4 4 4 4 5 5 6 6 6 7
18 16 19 24 26 26 24 22 21 18 16 15 13 9 5 -4 -22 -41 -50 -26 -6 7 11 20 34 45 44 34 30 29 31 33 36 36 28 13 -4 -19 -29 -25 -11 6 18 18 18 18 18 19 18 16 15 12 9 5 1 0 3 5 4 2 -0 -2 -2 -2 -2 -1 -0 1 2 3 3 3 3 3 3 4 4 4 4 4 4 4 4 4 4 4 4 4 4 4 4 4 4 4 4 4 4 5 5 5 6 6 7
27 22 20 22 24 26 25 22 19 16 13 13 15 18 20 9 -14 -37 -49 -31 -14 1 12 19 29 38 42 32 22 14 12 15 23 33 39 34 23 9 -5 -8 1 13 20 17 15 15 19 17 16 16 17 13 9 5 1 -3 -2 1 2 4 3 1 -2 -2 -1 -1 0 1 2 2 3 3 3 3 3 4 4 4 4 4 4 3 3 3 3 4 4 4 4 4 4 4 4 4 5 5 5 5 5 5 5 6 7
26 24 26 23 23 24 26 21 17 13 12 16 21 26 27 16 -7 -32 -48 -38 -22 -3 11 20 28 35 39 31 20 8 -4 -6 1 14 29 35 33 27 19 18 19 19 19 15 13 13 15 15 14 13 15 18 16 10 4 1 -2 -3 -0 3 5 5 1 -0 -0 0 1 1 1 2 2 3 3 3 4 4 4 4 3 3 3 3 3 3 3 4 4 4 4 4 4 5 5 5 5 5 5 5 5 5 5 6 6
16 15 27 29 26 23 24 21 14 9 10 17 27 33 33 19 -3 -27 -49 -51 -34 -10 8 17 26 34 38 35 30 21 6 -8 -7 4 20 29 31 29 26 27 25 20 14 14 12 11 12 12 11 10 11 17 21 21 15 10 4 -0 -2 1 5 8 7 3 1 0 1 1 1 2 2 3 3 3 3 3 3 3 3 3 3 3 3 4 4 4 4 5 5 5 5 5 5 5 5 5 5 5 5 5 5 6 6
17 9 9 22 29 31 23 20 14 6 3 11 22 32 36 22 2 -22 -48 -63 -48 -20 7 15 23 32 39 39 39 36 27 6 -4 -2 14 25 30 30 26 25 20 14 7 7 7 8 9 8 6 6 8 14 20 24 22 18 13 7 1 0 3 7 9 8 5 1 -1 -0 1 2 2 3 3 3 3 3 3 3 3 4 4 4 4 4 5 5 5 5 5 5 5 5 5 5 5 5 5 5 5 5 5 6 6
20 12 6 6 20 32 31 24 16 8 -0 4 13 24 31 27 13 -10 -38 -66 -60 -33 2 13 18 22 31 38 44 46 42 22 4 -6 -3 9 18 22 20 16 13 10 7 4 3 3 5 6 7 8 10 17 21 24 24 25 22 17 9 4 2 2 6 9 10 7 1 -1 -1 0 2 2 2 3 3 3 3 3 4 4 4 5 5 5 6 6 6 6 6 6 5 5 5 5 5 5 5 5 5 5 5 5 5
22 20 13 6 5 12 31 26 21 14 3 1 6 16 22 26 22 8 -17 -53 -59 -43 -10 5 10 12 16 26 37 46 52 39 19 -1 -15 -13 -5 3 6 4 4 4 6 6 8 10 12 17 19 21 23 25 25 25 26 28 28 27 23 14 7 2 2 7 11 12 9 3 -0 -1 -0 1 1 2 2 3 3 3 4 5 5 6 6 6 7 6 6 6 6 6 5 5 5 5 6 6 6 6 5 5 5 4 4
19 21 20 17 12 8 15 18 20 18 9 2 4 9 14 17 22 23 9 -26 -42 -40 -21 -7 -0 2 4 10 20 31 46 49 40 23 4 -10 -14 -12 -7 -5 -3 -1 0 1 4 10 18 24 27 27 26 25 24 23 23 27 31 33 31 25 17 10 5 8 12 15 15 9 4 0 -1 -0 0 1 2 3 3 4 4 5 6 6 6 6 6 6 6 6 5 5 5 5 6 6 6 6 6 5 5 4 4 3 3
14 18 21 20 19 17 13 14 15 15 12 7 5 5 6 10 15 20 20 -1 -18 -28 -25 -16 -10 -6 -3 0 4 10 21 34 41 43 40 26 13 3 -1 -2 -3 -3 -3 -0 3 7 12 17 19 18 17 16 16 17 18 21 27 33 36 31 26 21 14 11 13 16 18 15 10 5 1 0 1 1 2 3 3 4 4 5 5 6 5 5 5 5 5 5 5 5 5 5 6 6 6 6 5 5 4 4 3 3 2
11 13 16 19 20 20 19 17 15 13 10 10 8 5 -1 5 10 14 16 9 -1 -11 -19 -18 -14 -10 -8 -7 -6 -5 1 10 20 32 47 51 46 37 27 20 13 8 5 7 10 12 13 12 11 10 8 7 7 8 11 14 20 26 32 34 32 27 22 17 15 15 19 17 14 10 5 3 2 2 2 3 3 3 3 4 4 4 4 4 4 4 4 4 5 5 5 5 5 6 6 5 5 5 4 4 3 3 3
Height
5796 5799 5802 5803 5806 5808 5809 5813 5814 5816 5818 5820 5821 5823 5826 5827 5828 5829 5830 5832 5833 5834 5836 5839 5840 5840 5842 5842 5843 5845 5846 5848 5849 5850 5852 5853 5855 5856 5857 5858 5861 5862 5861 5863 5864 5865 5866 5867 5868 5868 5869 5870 5871 5872 5873 5874 5875 5876 5877 5877 5878 5879 5880 5881 5882 5883 5884 5885 5885 5886 5887 5888 5889 5889 5890 5891 5892 5892 5893 5893 5894 5895 5895 5896 5897 5897 5898 5898 5898 5899 5899 5900 5900 5901 5901 5902 5902 5903 5903 5903 5904 5904 5904
5790 5794 5797 5799 5802 5804 5806 5809 5811 5813 5814 5817 5819 5821 5823 5824 5825 5826 5827 5829 5831 5832 5833 5837 5837 5837 5840 5840 5841 5843 5844 5845 5847 5848 5850 5852 5853 5854 5856 5857 5859 5860 5860 5862 5863 5863 5864 5865 5866 5867 5868 5869 5870 5871 5872 5873 5873 5874 5875 5876 5877 5877 5878 5879 5881 5882 5883 5883 5884 5885 5886 5887 5888 5888 5889 5890 5890 5891 5892 5893 5893 5894 5894 5895 5896 5896 5897 5897 5898 5898 5898 5899 5899 5900 5900 5901 5901 5902 5902 5903 5903 5903 5903
5785 5788 5792 5795 5797 5800 5802 5805 5808 5809 5811 5813 5816 5818 5819 5822 5823 5823 5825 5827 5828 5830 5831 5834 5834 5834 5836 5837 5839 5840 5842 5843 5844 5846 5848 5849 5851 5852 5853 5855 5856 5858 5858 5859 5860 5862 5863 5864 5865 5866 5867 5868 5868 5869 5870 5871 5872 5873 5874 5875 5875 5876 5877 5878 5879 5880 5881 5882 5882 5883 5884 5885 5886 5887 5888 5888 5889 5890 5891 5891 5892 5893 5893 5894 5895 5895 5896 5896 5897 5897 5898 5898 5898 5899 5899 5900 5900 5901 5901 5902 5902 5903 5903
5780 5783 5787 5790 5793 5796 5798 5801 5803 5806 5808 5809 5812 5813 5816 5818 5820 5821 5822 5823 5825 5827 5829 5831 5833 5833 5833 5835 5836 5838 5839 5841 5842 5844 5845 5847 5849 5850 5852 5854 5855 5855 5857 5857 5858 5860 5861 5862 5863 5864 5865 5866 5867 5868 5869 5870 5871 5872 5873 5873 5874 5875 5876 5877 5878 5879 5879 5880 5881 5882 5883 5884 5885 5885 5886 5887 5888 5888 5889 5890 5891 5892 5892 5893 5893 5894 5895 5895 5895 5896 5896 5897 5897 5898 5898 5899 5899 5900 5900 5901 5901 5902 5902
5775 5778 5782 5785 5788 5791 5794 5796 5799 5802 5804 5806 5808 5810 5812 5815 5817 5818 5818 5820 5823 5824 5827 5829 5830 5831 5833 5833 5834 5836 5837 5838 5840 5841 5843 5845 5847 5849 5850 5852 5853 5854 5855 5855 5857 5858 5859 5860 5861 5862 5863 5864 5865 5866 5867 5868 5869 5870 5871 5872 5873 5873 5874 5875 5876 5877 5878 5879 5880 5881 5881 5882 5883 5884 5885 5886 5886 5887 5888 5889 5890 5890 5891 5892 5893 5893 5893 5894 5894 5895 5895 5896 5896 5897 5897 5898 5898 5899 5899 5900 5900 5900 5901
5770 5773 5776 5780 5783 5787 5790 5792 5795 5798 5801 5802 5804 5806 5808 5811 5813 5815 5816 5818 5820 5822 5823 5826 5828 5829 5831 5830 5832 5834 5835 5836 5837 5839 5841 5843 5845 5847 5848 5849 5851 5852 5853 5854 5855 5856 5857 5858 5859 5860 5861 5863 5864 5865 5866 5867 5868 5869 5870 5871 5872 5872 5873 5874 5875 5876 5877 5877 5878 5879 5880 5881 5882 5883 5883 5884 5885 5886 5887 5888 5888 5889 5890 5891 5891 5892 5892 5893 5893 5894 5894 5894 5895 5896 5896 5897 5897 5898 5898 5899 5899 5899 5900
5765 5768 5771 5775 5778 5782 5786 5788 5791 5794 5797 5799 5801 5803 5806 5807 5810 5813 5813 5814 5816 5819 5821 5823 5825 5827 5828 5828 5830 5831 5832 5833 5835 5837 5838 5840 5842 5844 5846 5848 5849 5850 5851 5852 5853 5854 5855 5856 5857 5858 5859 5861 5862 5863 5864 5865 5866 5867 5868 5869 5870 5871 5872 5873 5873 5874 5875 5876 5877 5878 5878 5879 5880 5881 5882 5883 5884 5885 5885 5886 5887 5888 5888 5889 5890 5890 5891 5892 5892 5893 5893 5893 5894 5894 5895 5896 5896 5896 5897 5898 5898 5898 5899
5760 5763 5766 5770 5773 5777 5781 5785 5787 5789 5792 5795 5797 5799 5802 5804 5807 5809 5811 5811 5813 5816 5818 5819 5821 5824 5826 5826 5828 5829 5830 5831 5833 5834 5836 5838 5840 5842 5844 5846 5847 5848 5849 5850 5851 5852 5853 5854 5855 5856 5858 5859 5860 5861 5862 5863 5864 5865 5867 5868 5868 5869 5870 5871 5872 5873 5874 5874 5875 5876 5878 5878 5879 5880 5880 5881 5882 5883 5884 5885 5886 5887 5887 5888 5888 5889 5889 5890 5891 5891 5892 5892 5893 5893 5894 5894 5895 5895 5896 5897 5897 5898 5898
5755 5758 5762 5765 5768 5772 5776 5781 5783 5786 5789 5791 5793 5795 5798 5800 5803 5806 5808 5809 5811 5813 5815 5817 5818 5820 5824 5825 5826 5826 5828 5828 5830 5832 5834 5836 5838 5839 5842 5843 5845 5846 5847 5848 5849 5850 5851 5852 5853 5854 5855 5857 5858 5859 5860 5861 5863 5864 5865 5866 5867 5868 5869 5870 5871 5871 5872 5873 5874 5875 5876 5877 5878 5878 5879 5880 5881 5882 5883 5883 5884 5885 5886 5886 5887 5888 5888 5888 5889 5890 5890 5891 5891 5892 5893 5893 5894 5894 5895 5895 5896 5896 5897
5750 5753 5757 5760 5763 5767 5771 5775 5778 5782 5784 5788 5790 5793 5794 5796 5799 5803 5805 5807 5808 5809 5812 5814 5815 5818 5821 5823 5823 5824 5825 5826 5828 5830 5832 5833 5835 5837 5839 5841 5843 5844 5845 5846 5847 5848 5849 5850 5851 5853 5853 5855 5856 5857 5858 5860 5861 5862 5863 5864 5865 5866 5867 5868 5869 5870 5871 5872 5873 5873 5874 5875 5876 5877 5878 5878 5879 5880 5881 5882 5883 5883 5884 5885 5886 5886 5887 5887 5888 5888 5889 5889 5890 5891 5891 5892 5893 5893 5893 5894 5895 5895 5895
5745 5748 5752 5755 5758 5762 5766 5770 5774 5778 5781 5784 5787 5789 5792 5793 5796 5799 5802 5803 5804 5805 5808 5811 5812 5814 5817 5818 5820 5822 5824 5824 5825 5827 5829 5831 5833 5835 5837 5840 5841 5841 5843 5844 5845 5846 5847 5848 5849 5851 5852 5853 5854 5856 5857 5858 5859 5860 5861 5863 5863 5865 5866 5867 5867 5868 5869 5870 5871 5872 5873 5874 5874 5875 5876 5877 5878 5878 5880 5880 5881 5882 5883 5883 5884 5885 5885 5886 5886 5887 5888 5888 5888 5889 5890 5891 5891 5892 5893 5893 5893 5894 5894
5740 5743 5747 5749 5753 5757 5761 5765 5770 5774 5776 5780 5783 5785 5788 5790 5792 5795 5799 5800 5802 5803 5805 5807 5809 5811 5813 5815 5817 5819 5820 5822 5823 5825 5827 5829 5831 5833 5835 5838 5839 5840 5841 5842 5843 5844 5845 5846 5848 5849 5850 5851 5853 5854 5855 5856 5857 5858 5859 5861 5862 5863 5864 5865 5866 5867 5868 5869 5870 5871 5871 5872 5873 5874 5875 5876 5876 5877 5878 5879 5879 5880 5881 5882 5883 5883 5884 5884 5885 5885 5886 5887 5887 5888 5888 5889 5890 5890 5891 5892 5892 5893 5893
5735 5738 5741 5744 5748 5752 5756 5760 5765 5769 5772 5776 5779 5782 5783 5786 5788 5790 5794 5797 5799 5800 5802 5803 5806 5808 5810 5812 5814 5816 5818 5819 5820 5823 5825 5827 5829 5831 5833 5835 5837 5838 5838 5839 5840 5842 5843 5844 5845 5847 5848 5849 5851 5852 5853 5854 5855 5857 5858 5859 5860 5861 5862 5863 5864 5865 5866 5867 5868 5869 5870 5871 5872 5873 5873 5874 5875 5876 5877 5878 5879 5880 5880 5880 5881 5882 5882 5883 5883 5884 5884 5885 5886 5887 5887 5888 5888 5889 5890 5890 5891 5891 5892
5730 5733 5736 5740 5743 5747 5752 5755 5760 5764 5768 5772 5775 5778 5780 5782 5784 5787 5789 5793 5796 5798 5799 5800 5803 5805 5807 5809 5811 5813 5815 5816 5818 5820 5823 5825 5826 5828 5831 5833 5835 5835 5836 5837 5838 5839 5841 5842 5843 5845 5846 5848 5849 5850 5851 5852 5853 5855 5856 5857 5858 5859 5860 5861 5862 5863 5864 5865 5866 5867 5868 5869 5870 5871 5872 5873 5873 5874 5875 5876 5878 5878 5879 5879 5880 5880 5881 5881 5882 5882 5883 5883 5884 5885 5886 5887 5887 5888 5888 5889 5889 5890 5890
5725 5728 5731 5735 5739 5743 5747 5751 5755 5760 5764 5768 5771 5774 5777 5779 5781 5783 5786 5789 5793 5796 5796 5797 5798 5801 5804 5806 5808 5810 5812 5813 5816 5818 5820 5822 5824 5826 5828 5831 5832 5833 5833 5835 5836 5837 5839 5840 5842 5843 5844 5846 5847 5848 5850 5851 5852 5853 5854 5855 5857 5857 5858 5860 5861 5862 5863 5863 5864 5866 5867 5868 5868 5869 5870 5871 5872 5873 5873 5874 5875 5877 5877 5878 5878 5879 5879 5880 5880 5881 5882 5882 5883 5883 5884 5885 5886 5886 5887 5888 5888 5888 5889
5720 5723 5726 5730 5734 5738 5741 5746 5750 5754 5760 5764 5767 5770 5773 5776 5778 5779 5782 5785 5789 5792 5792 5794 5795 5798 5800 5803 5805 5807 5808 5810 5813 5816 5818 5819 5821 5823 5824 5828 5829 5830 5831 5833 5834 5835 5837 5838 5840 5841 5843 5844 5845 5846 5848 5849 5850 5851 5853 5854 5855 5856 5856 5859 5860 5860 5861 5862 5863 5864 5865 5866 5867 5868 5868 5869 5870 5871 5872 5873 5873 5875 5876 5876 5877 5877 5878 5879 5880 5880 5880 5881 5881 5882 5883 5883 5884 5885 5886 5886 5887 5887 5888
5716 5718 5721 5725 5729 5733 5736 5740 5745 5749 5755 5759 5762 5766 5769 5772 5774 5776 5778 5781 5784 5788 5790 5791 5792 5794 5797 5800 5802 5803 5805 5807 5810 5813 5816 5816 5818 5820 5822 5824 5826 5827 5829 5830 5832 5833 5835 5836 5838 5839 5841 5842 5843 5844 5846 5847 5848 5849 5851 5852 5853 5854 5855 5856 5857 5858 5859 5860 5861 5862 5863 5864 5865 5866 5867 5868 5868 5869 5870 5871 5872 5873 5873 5874 5875 5876 5877 5877 5878 5879 5879 5879 5880 5880 5881 5882 5883 5883 5884 5885 5885 5886 5886
5711 5713 5716 5719 5724 5728 5732 5736 5740 5744 5750 5754 5758 5761 5765 5768 5771 5773 5776 5777 5779 5783 5788 5788 5789 5791 5793 5796 5798 5800 5802 5804 5807 5809 5813 5814 5815 5817 5819 5821 5823 5825 5827 5828 5829 5831 5832 5834 5835 5837 5838 5840 5841 5843 5844 5845 5846 5847 5849 5850 5851 5852 5853 5854 5855 5856 5857 5858 5859 5860 5861 5863 5863 5864 5865 5866 5867 5868 5869 5869 5870 5871 5872 5873 5873 5874 5875 5876 5877 5878 5878 5878 5878 5879 5879 5880 5881 5882 5883 5883 5884 5884 5884
5706 5708 5711 5714 5719 5723 5728 5731 5735 5740 5745 5750 5754 5757 5760 5764 5767 5771 5773 5774 5776 5779 5783 5785 5786 5788 5790 5793 5795 5797 5799 5801 5803 5806 5808 5810 5812 5814 5816 5818 5821 5823 5824 5826 5827 5828 5830 5832 5833 5835 5837 5838 5839 5840 5842 5843 5844 5845 5847 5848 5849 5851 5852 5853 5854 5854 5855 5856 5858 5858 5860 5861 5862 5863 5863 5864 5865 5866 5867 5868 5869 5870 5870 5871 5872 5873 5873 5874 5875 5876 5877 5877 5877 5878 5878 5879 5880 5880 5881 5882 5882 5883 5883
5701 5704 5707 5710 5714 5719 5723 5727 5731 5736 5740 5746 5749 5753 5756 5759 5763 5767 5769 5771 5773 5775 5778 5784 5786 5786 5787 5789 5791 5794 5796 5798 5800 5803 5805 5807 5809 5812 5814 5816 5818 5820 5822 5823 5825 5826 5827 5829 5831 5833 5835 5836 5837 5838 5839 5841 5842 5843 5845 5846 5847 5848 5851 5853 5853 5853 5853 5855 5856 5857 5858 5859 5860 5861 5862 5863 5864 5864 5865 5866 5867 5868 5869 5870 5870 5871 5872 5873 5873 5874 5874 5875 5875 5876 5877 5877 5878 5879 5879 5880 5881 5881 5881
5696 5699 5702 5705 5709 5714 5718 5723 5726 5731 5736 5741 5745 5749 5753 5756 5759 5762 5765 5768 5770 5773 5775 5780 5784 5786 5783 5786 5788 5792 5796 5797 5797 5799 5802 5804 5807 5809 5812 5814 5817 5818 5820 5821 5823 5823 5825 5827 5829 5831 5833 5834 5835 5836 5837 5839 5840 5842 5843 5844 5845 5847 5849 5851 5851 5851 5852 5853 5854 5855 5856 5857 5858 5859 5860 5861 5862 5863 5863 5864 5865 5866 5867 5868 5869 5869 5870 5871 5871 5872 5873 5873 5874 5874 5875 5876 5876 5877 5878 5878 5879 5879 5880
5691 5694 5698 5701 5705 5709 5713 5718 5723 5728 5733 5737 5741 5745 5749 5753 5757 5759 5762 5764 5768 5771 5773 5774 5777 5779 5779 5783 5785 5790 5798 5795 5795 5797 5799 5801 5804 5807 5809 5812 5814 5816 5818 5819 5820 5821 5823 5824 5827 5828 5830 5832 5833 5834 5835 5837 5838 5840 5841 5842 5843 5845 5848 5848 5848 5849 5850 5851 5852 5853 5854 5855 5856 5857 5858 5859 5860 5861 5862 5863 5863 5864 5865 5866 5867 5868 5868 5869 5869 5870 5871 5872 5872 5873 5873 5874 5875 5876 5876 5877 5878 5878 5878
5686 5690 5693 5696 5700 5704 5709 5713 5719 5725 5728 5733 5738 5742 5746 5750 5754 5757 5759 5761 5765 5768 5770 5771 5772 5774 5778 5780 5782 5787 5794 5792 5792 5794 5796 5799 5801 5804 5807 5809 5812 5813 5815 5817 5818 5819 5820 5822 5824 5826 5828 5829 5831 5832 5833 5834 5836 5838 5839 5840 5841 5843 5846 5846 5846 5847 5848 5849 5850 5851 5852 5853 5854 5855 5856 5858 5858 5859 5860 5861 5862 5863 5863 5865 5866 5867 5868 5868 5868 5869 5869 5870 5871 5871 5872 5873 5873 5874 5874 5875 5876 5876 5877
5681 5685 5688 5692 5696 5700 5704 5709 5715 5720 5724 5729 5734 5738 5743 5747 5751 5755 5757 5759 5762 5765 5768 5768 5768 5772 5777 5778 5779 5783 5787 5787 5788 5791 5793 5796 5799 5802 5804 5807 5809 5811 5813 5815 5816 5817 5818 5820 5822 5824 5826 5827 5828 5829 5831 5832 5834 5835 5837 5838 5839 5841 5842 5843 5844 5845 5846 5847 5848 5849 5850 5851 5853 5853 5854 5855 5857 5858 5858 5859 5860 5861 5862 5863 5864 5866 5867 5866 5866 5867 5868 5868 5869 5869 5870 5871 5871 5872 5873 5873 5874 5875 5875
5677 5681 5684 5688 5692 5696 5700 5706 5711 5716 5721 5726 5731 5736 5739 5743 5748 5752 5755 5757 5759 5762 5764 5764 5766 5770 5776 5775 5777 5780 5782 5784 5786 5788 5791 5794 5798 5800 5803 5804 5807 5809 5811 5812 5813 5814 5815 5817 5819 5821 5823 5825 5826 5827 5828 5830 5832 5833 5834 5836 5837 5838 5840 5841 5842 5843 5844 5845 5846 5847 5848 5849 5850 5851 5853 5853 5855 5856 5856 5857 5858 5859 5860 5861 5862 5863 5864 5864 5865 5865 5866 5867 5867 5868 5868 5869 5870 5870 5871 5872 5873 5873 5873
5672 5677 5681 5684 5688 5692 5697 5703 5708 5713 5718 5723 5728 5733 5736 5740 5745 5750 5753 5756 5758 5760 5762 5763 5764 5768 5773 5772 5774 5777 5779 5781 5783 5786 5788 5792 5795 5798 5801 5802 5804 5807 5808 5810 5811 5812 5813 5814 5817 5819 5820 5822 5823 5825 5826 5828 5829 5831 5832 5834 5835 5836 5838 5838 5840 5841 5842 5843 5844 5846 5846 5848 5848 5849 5851 5852 5853 5853 5854 5855 5856 5857 5858 5859 5860 5861 5862 5863 5863 5863 5864 5865 5866 5866 5867 5867 5868 5869 5869 5870 5871 5871 5872
5668 5673 5677 5681 5685 5689 5694 5700 5705 5711 5716 5720 5725 5730 5734 5738 5743 5747 5750 5753 5756 5758 5760 5761 5763 5767 5770 5768 5770 5774 5776 5778 5781 5783 5786 5790 5793 5796 5798 5800 5802 5804 5806 5807 5808 5809 5810 5812 5814 5816 5818 5819 5821 5823 5824 5825 5827 5828 5830 5832 5833 5834 5835 5837 5838 5839 5840 5841 5843 5844 5845 5846 5847 5848 5848 5850 5851 5852 5853 5853 5854 5855 5856 5857 5858 5859 5860 5861 5861 5862 5863 5863 5864 5865 5865 5866 5866 5867 5868 5868 5869 5869 5870
5665 5670 5674 5678 5683 5687 5692 5698 5703 5708 5713 5718 5723 5728 5732 5736 5740 5744 5747 5750 5754 5757 5758 5759 5761 5764 5766 5766 5767 5770 5773 5775 5778 5781 5783 5788 5792 5793 5794 5797 5799 5801 5803 5805 5806 5807 5808 5809 5811 5813 5815 5817 5818 5820 5822 5823 5824 5826 5828 5829 5831 5832 5833 5834 5836 5837 5838 5839 5841 5842 5843 5843 5844 5846 5847 5848 5849 5850 5851 5851 5852 5853 5854 5855 5856 5857 5858 5859 5860 5860 5861 5862 5862 5863 5863 5864 5865 5865 5866 5866 5867 5868 5868
5662 5667 5672 5676 5680 5685 5690 5694 5700 5705 5710 5715 5720 5724 5729 5733 5737 5741 5743 5747 5751 5754 5756 5758 5761 5763 5763 5763 5764 5767 5769 5772 5775 5778 5783 5786 5788 5789 5791 5794 5796 5798 5801 5803 5803 5804 5805 5806 5808 5810 5812 5814 5816 5818 5819 5821 5822 5823 5825 5827 5828 5829 5831 5832 5833 5835 5836 5837 5838 5840 5841 5842 5843 5843 5844 5846 5847 5848 5848 5849 5850 5851 5852 5853 5854 5855 5856 5857 5857 5858 5859 5860 5860 5861 5862 5862 5863 5863 5864 5864 5865 5866 5866
5658 5664 5669 5673 5678 5683 5687 5692 5698 5703 5708 5712 5717 5721 5724 5729 5734 5737 5741 5744 5748 5751 5753 5756 5761 5764 5763 5761 5762 5764 5767 5769 5772 5777 5781 5782 5784 5787 5789 5791 5793 5796 5798 5800 5801 5802 5802 5803 5805 5807 5809 5811 5813 5815 5817 5818 5820 5821 5823 5824 5826 5827 5828 5830 5831 5833 5834 5835 5836 5837 5838 5840 5841 5842 5843 5844 5845 5845 5847 5848 5848 5849 5850 5851 5852 5853 5854 5855 5855 5856 5857 5858 5858 5859 5860 5860 5861 5862 5862 5863 5863 5864 5864
5655 5661 5666 5671 5676 5680 5685 5690 5695 5700 5705 5709 5713 5718 5723 5727 5730 5735 5739 5742 5746 5749 5752 5755 5759 5763 5762 5759 5759 5761 5764 5767 5770 5774 5778 5779 5781 5783 5786 5788 5791 5793 5796 5798 5798 5799 5800 5801 5802 5804 5806 5808 5810 5813 5815 5816 5818 5818 5820 5822 5823 5824 5826 5827 5829 5830 5831 5833 5834 5835 5836 5837 5838 5839 5841 5842 5843 5843 5844 5845 5846 5847 5848 5849 5850 5851 5852 5853 5853 5854 5855 5855 5856 5857 5858 5858 5859 5860 5860 5861 5861 5862 5863
5653 5659 5664 5669 5674 5679 5684 5688 5693 5698 5702 5707 5711 5715 5721 5724 5728 5733 5738 5740 5743 5746 5750 5753 5758 5761 5760 5757 5757 5759 5762 5764 5768 5772 5773 5775 5777 5780 5783 5786 5788 5790 5793 5794 5796 5797 5797 5798 5800 5801 5803 5805 5808 5810 5812 5814 5815 5816 5818 5819 5820 5822 5823 5825 5826 5828 5829 5830 5831 5833 5833 5835 5836 5837 5838 5839 5841 5842 5843 5843 5844 5845 5846 5847 5848 5849 5849 5850 5851 5852 5853 5853 5854 5855 5856 5856 5857 5858 5858 5859 5859 5860 5861
5651 5657 5662 5668 5673 5678 5683 5687 5691 5696 5700 5705 5709 5714 5718 5722 5726 5730 5736 5738 5741 5743 5747 5751 5756 5759 5757 5754 5754 5757 5759 5761 5765 5768 5770 5772 5775 5778 5780 5783 5785 5787 5789 5791 5793 5794 5795 5796 5797 5799 5800 5803 5805 5807 5809 5811 5813 5814 5815 5817 5818 5819 5821 5822 5824 5825 5827 5828 5829 5830 5832 5833 5834 5835 5836 5838 5838 5839 5840 5841 5843 5843 5844 5845 5846 5847 5848 5848 5849 5850 5851 5851 5852 5853 5853 5854 5855 5856 5856 5857 5858 5858 5859
5652 5657 5663 5668 5673 5677 5682 5686 5690 5694 5699 5704 5709 5714 5718 5721 5724 5728 5733 5737 5739 5741 5745 5749 5753 5756 5755 5752 5752 5754 5756 5758 5761 5764 5768 5769 5772 5775 5778 5780 5782 5784 5786 5788 5790 5791 5793 5793 5795 5796 5798 5800 5802 5804 5807 5808 5810 5811 5813 5814 5816 5817 5818 5820 5821 5823 5824 5826 5827 5828 5829 5831 5832 5833 5834 5835 5836 5837 5838 5839 5840 5841 5842 5843 5844 5845 5845 5846 5847 5848 5848 5849 5850 5851 5851 5852 5853 5853 5854 5855 5856 5856 5857
5654 5658 5663 5668 5673 5676 5680 5684 5688 5694 5699 5704 5708 5713 5716 5719 5721 5725 5730 5733 5737 5739 5742 5746 5750 5753 5753 5751 5750 5752 5753 5755 5758 5760 5763 5766 5769 5772 5774 5777 5779 5781 5783 5785 5787 5788 5790 5791 5792 5793 5795 5797 5799 5801 5804 5806 5808 5809 5810 5812 5813 5814 5816 5817 5819 5821 5823 5823 5824 5825 5827 5828 5829 5831 5832 5833 5834 5835 5836 5837 5838 5839 5840 5841 5842 5843 5843 5844 5845 5846 5846 5847 5848 5848 5849 5850 5851 5851 5852 5853 5853 5854 5855
5656 5659 5663 5668 5671 5675 5679 5683 5688 5693 5698 5702 5706 5710 5713 5716 5718 5722 5726 5730 5733 5736 5739 5743 5747 5750 5749 5749 5749 5750 5751 5753 5755 5758 5760 5763 5766 5768 5771 5773 5775 5778 5780 5782 5784 5785 5787 5788 5789 5790 5792 5794 5796 5798 5801 5803 5805 5806 5808 5809 5810 5812 5813 5815 5816 5818 5820 5821 5822 5823 5824 5826 5827 5828 5829 5831 5832 5833 5834 5835 5836 5837 5838 5838 5839 5840 5841 5842 5843 5843 5844 5845 5846 5846 5847 5848 5849 5849 5850 5851 5852 5852 5853
5657 5660 5663 5667 5670 5674 5678 5683 5688 5693 5697 5702 5705 5707 5710 5713 5715 5718 5723 5726 5730 5733 5736 5739 5743 5746 5745 5745 5746 5747 5750 5752 5753 5755 5758 5761 5763 5765 5768 5770 5772 5774 5776 5778 5780 5782 5783 5785 5786 5787 5789 5791 5793 5795 5798 5800 5802 5803 5805 5806 5808 5809 5811 5813 5814 5815 5817 5818 5819 5821 5822 5823 5824 5826 5827 5828 5829 5830 5832 5833 5833 5834 5835 5836 5837 5838 5839 5839 5840 5841 5842 5843 5843 5844 5845 5846 5847 5847 5848 5849 5849 5850 5851
5657 5660 5663 5666 5669 5673 5678 5682 5686 5691 5696 5702 5704 5706 5708 5710 5712 5716 5720 5723 5727 5730 5734 5737 5740 5741 5740 5741 5743 5745 5748 5750 5752 5753 5755 5758 5760 5762 5764 5766 5768 5770 5773 5774 5777 5779 5780 5782 5783 5784 5786 5788 5790 5792 5794 5797 5798 5800 5802 5803 5805 5807 5808 5810 5812 5813 5814 5815 5817 5818 5819 5821 5822 5823 5824 5826 5827 5828 5829 5830 5831 5832 5833 5834 5835 5835 5836 5837 5838 5839 5840 5840 5841 5842 5843 5844 5844 5845 5846 5847 5847 5848 5848
5658 5661 5663 5666 5669 5673 5677 5681 5685 5689 5693 5698 5702 5704 5707 5709 5711 5713 5718 5722 5726 5729 5732 5734 5736 5737 5736 5739 5742 5744 5746 5748 5750 5751 5753 5755 5757 5758 5760 5762 5764 5766 5768 5771 5773 5775 5777 5778 5780 5781 5783 5784 5786 5788 5791 5793 5795 5797 5799 5801 5802 5804 5806 5808 5809 5810 5812 5813 5814 5815 5817 5818 5819 5820 5822 5823 5824 5825 5827 5828 5828 5830 5830 5831 5832 5833 5834 5835 5836 5837 5838 5838 5839 5840 5841 5841 5842 5843 5843 5844 5845 5846 5846
5658 5661 5663 5666 5668 5672 5676 5680 5684 5688 5691 5695 5698 5702 5705 5708 5710 5713 5717 5721 5726 5730 5731 5732 5733 5734 5736 5739 5742 5743 5744 5746 5748 5750 5752 5753 5754 5756 5758 5759 5761 5762 5764 5767 5769 5771 5773 5775 5777 5778 5780 5781 5783 5785 5787 5790 5792 5794 5796 5798 5799 5801 5803 5805 5806 5808 5809 5810 5811 5813 5814 5815 5816 5818 5819 5820 5822 5823 5824 5825 5826 5827 5828 5829 5830 5831 5832 5833 5833 5834 5835 5836 5837 5838 5838 5839 5840 5841 5841 5842 5843 5843 5844
5659 5661 5663 5666 5668 5672 5676 5680 5683 5687 5690 5693 5696 5699 5703 5707 5709 5711 5715 5720 5725 5729 5730 5730 5731 5733 5736 5738 5740 5741 5742 5743 5746 5749 5752 5750 5751 5753 5754 5756 5757 5758 5760 5763 5765 5767 5769 5771 5773 5775 5776 5778 5779 5782 5784 5786 5788 5791 5793 5795 5797 5798 5800 5802 5803 5805 5806 5807 5808 5810 5811 5812 5813 5815 5816 5818 5819 5820 5821 5823 5824 5826 5826 5826 5827 5828 5829 5830 5831 5832 5833 5833 5834 5835 5836 5837 5838 5838 5839 5840 5840 5841 5842
5660 5662 5664 5666 5669 5672 5675 5679 5682 5686 5689 5692 5696 5700 5704 5708 5709 5710 5714 5719 5724 5727 5728 5729 5731 5734 5736 5737 5738 5739 5741 5742 5744 5748 5750 5749 5749 5750 5752 5753 5753 5755 5757 5759 5761 5763 5765 5767 5769 5771 5773 5774 5776 5778 5780 5783 5785 5787 5789 5792 5793 5795 5797 5799 5800 5802 5803 5804 5806 5807 5808 5809 5811 5812 5813 5815 5816 5817 5818 5820 5822 5824 5824 5824 5825 5826 5828 5828 5829 5830 5830 5831 5832 5833 5833 5834 5835 5836 5837 5837 5838 5839 5840
5662 5663 5665 5667 5669 5672 5675 5678 5681 5685 5688 5692 5696 5701 5705 5707 5707 5708 5712 5717 5722 5724 5726 5728 5732 5736 5737 5737 5736 5737 5738 5740 5743 5745 5747 5748 5748 5749 5751 5751 5752 5753 5755 5756 5757 5759 5761 5763 5765 5767 5769 5771 5772 5774 5777 5779 5781 5783 5786 5788 5790 5792 5794 5795 5797 5798 5800 5801 5803 5804 5805 5806 5808 5809 5810 5812 5813 5814 5816 5817 5818 5820 5821 5822 5823 5824 5825 5826 5827 5829 5829 5830 5830 5830 5831 5832 5833 5833 5834 5835 5836 5836 5837
5663 5664 5666 5668 5669 5672 5674 5678 5681 5684 5688 5692 5696 5700 5703 5704 5705 5707 5709 5714 5719 5723 5724 5728 5732 5736 5737 5736 5735 5734 5735 5737 5740 5743 5744 5745 5745 5746 5748 5750 5752 5753 5753 5753 5753 5755 5758 5760 5762 5763 5766 5767 5769 5771 5773 5775 5777 5780 5782 5784 5787 5788 5790 5792 5794 5795 5797 5798 5799 5801 5802 5803 5804 5806 5808 5809 5810 5812 5813 5814 5816 5817 5818 5819 5820 5821 5823 5823 5825 5827 5828 5828 5828 5828 5829 5830 5830 5831 5832 5833 5833 5834 5835
5664 5665 5667 5668 5670 5672 5674 5677 5680 5684 5687 5691 5695 5698 5701 5701 5702 5705 5708 5712 5718 5722 5724 5727 5731 5734 5735 5735 5734 5733 5733 5734 5737 5740 5741 5741 5740 5741 5743 5748 5750 5750 5749 5749 5749 5751 5753 5757 5759 5760 5763 5764 5766 5768 5770 5772 5773 5776 5778 5781 5783 5785 5787 5788 5790 5792 5793 5794 5796 5797 5798 5800 5801 5803 5804 5806 5808 5809 5810 5812 5813 5814 5815 5816 5818 5818 5820 5821 5822 5823 5825 5824 5825 5827 5828 5828 5828 5829 5830 5830 5831 5832 5832
5665 5666 5667 5668 5670 5672 5674 5677 5680 5683 5686 5690 5694 5696 5697 5697 5700 5703 5706 5711 5716 5721 5724 5726 5729 5732 5733 5734 5734 5734 5732 5733 5735 5737 5738 5737 5736 5737 5741 5745 5747 5746 5744 5745 5746 5748 5750 5753 5755 5758 5760 5762 5764 5765 5767 5768 5770 5772 5774 5776 5779 5781 5783 5784 5786 5788 5789 5791 5792 5794 5795 5797 5798 5800 5802 5803 5805 5806 5808 5809 5810 5812 5813 5814 5815 5816 5817 5818 5819 5820 5821 5822 5823 5824 5825 5826 5826 5826 5827 5828 5828 5829 5830
5665 5667 5668 5669 5670 5672 5674 5677 5679 5683 5686 5689 5692 5694 5694 5694 5697 5701 5705 5709 5713 5717 5720 5724 5727 5729 5730 5732 5733 5735 5734 5733 5733 5734 5734 5734 5734 5735 5737 5739 5740 5740 5740 5741 5743 5745 5748 5750 5752 5754 5757 5759 5761 5763 5764 5765 5766 5768 5770 5772 5775 5777 5779 5781 5782 5784 5786 5787 5789 5790 5792 5794 5795 5797 5798 5800 5802 5803 5805 5806 5808 5809 5810 5811 5812 5813 5814 5815 5816 5817 5818 5819 5820 5821 5822 5823 5824 5824 5824 5825 5826 5827 5827
5665 5667 5668 5669 5670 5672 5674 5676 5679 5682 5685 5688 5690 5691 5691 5692 5694 5699 5703 5707 5709 5711 5713 5718 5722 5725 5728 5729 5731 5732 5733 5733 5732 5732 5731 5732 5733 5734 5734 5735 5736 5737 5738 5739 5741 5743 5744 5747 5749 5751 5754 5756 5758 5759 5761 5762 5763 5764 5766 5768 5771 5773 5775 5777 5778 5780 5782 5784 5785 5787 5788 5790 5792 5793 5795 5797 5799 5800 5802 5803 5804 5806 5807 5808 5809 5810 5812 5813 5813 5815 5816 5817 5817 5818 5819 5820 5821 5821 5822 5823 5823 5824 5825
5665 5666 5668 5669 5670 5672 5673 5675 5678 5681 5684 5688 5689 5688 5688 5689 5693 5698 5702 5705 5706 5706 5707 5712 5717 5721 5724 5727 5728 5728 5729 5730 5731 5731 5729 5729 5729 5731 5732 5733 5735 5736 5736 5737 5738 5740 5742 5744 5746 5748 5751 5753 5755 5756 5757 5758 5759 5760 5762 5764 5767 5769 5771 5773 5775 5776 5778 5780 5782 5783 5785 5787 5788 5790 5792 5793 5795 5797 5798 5800 5801 5803 5804 5805 5806 5808 5809 5810 5811 5812 5813 5813 5814 5815 5816 5817 5818 5818 5819 5820 5821 5821 5822
5664 5666 5667 5668 5670 5671 5673 5675 5678 5680 5683 5686 5687 5687 5686 5688 5693 5697 5700 5703 5703 5703 5704 5706 5711 5716 5721 5724 5725 5726 5726 5727 5728 5729 5729 5727 5725 5726 5728 5731 5733 5734 5733 5735 5736 5738 5739 5741 5743 5745 5748 5749 5751 5753 5754 5755 5756 5757 5758 5760 5763 5765 5767 5769 5771 5773 5774 5776 5778 5780 5782 5783 5785 5787 5788 5790 5792 5793 5795 5797 5798 5799 5801 5802 5803 5804 5806 5807 5808 5809 5810 5811 5812 5812 5813 5814 5815 5815 5816 5817 5818 5818 5819
5663 5665 5666 5668 5669 5670 5672 5674 5677 5679 5682 5683 5684 5685 5686 5689 5692 5696 5699 5700 5701 5701 5701 5702 5705 5710 5715 5720 5722 5723 5724 5725 5726 5726 5726 5723 5722 5723 5724 5727 5729 5731 5731 5733 5734 5735 5737 5738 5740 5742 5744 5746 5748 5750 5752 5752 5752 5753 5754 5756 5759 5761 5763 5765 5767 5769 5771 5773 5774 5776 5778 5780 5782 5783 5785 5787 5788 5790 5792 5793 5795 5796 5798 5799 5800 5801 5803 5804 5805 5806 5807 5808 5808 5809 5810 5811 5812 5813 5813 5814 5815 5816 5816
5663 5664 5665 5667 5668 5670 5672 5673 5676 5678 5679 5681 5682 5683 5686 5689 5692 5695 5697 5698 5698 5698 5699 5700 5702 5705 5709 5713 5716 5718 5720 5721 5723 5723 5721 5719 5719 5721 5723 5724 5727 5728 5729 5731 5732 5733 5734 5736 5738 5739 5741 5742 5744 5746 5747 5750 5752 5752 5751 5753 5755 5757 5759 5761 5763 5765 5767 5768 5770 5773 5774 5776 5778 5780 5781 5783 5785 5787 5788 5790 5791 5793 5794 5795 5797 5798 5799 5800 5801 5802 5803 5804 5805 5806 5807 5808 5809 5810 5810 5811 5812 5813 5813
5664 5664 5665 5666 5668 5669 5671 5673 5675 5677 5678 5680 5681 5683 5686 5689 5692 5694 5695 5696 5696 5696 5697 5698 5699 5702 5704 5708 5711 5714 5717 5717 5718 5718 5718 5717 5718 5721 5722 5724 5725 5724 5724 5726 5728 5728 5730 5732 5733 5735 5737 5738 5740 5741 5743 5745 5747 5748 5748 5750 5752 5753 5755 5757 5759 5761 5763 5765 5767 5769 5771 5773 5774 5776 5778 5780 5781 5783 5785 5786 5788 5789 5791 5792 5793 5795 5796 5797 5798 5799 5800 5801 5802 5803 5804 5805 5806 5807 5808 5808 5809 5810 5811
5664 5665 5665 5666 5667 5669 5671 5673 5674 5676 5678 5678 5680 5682 5685 5688 5690 5692 5693 5693 5693 5693 5695 5696 5697 5699 5701 5703 5706 5709 5712 5714 5714 5715 5715 5714 5715 5718 5719 5720 5721 5721 5723 5723 5723 5723 5725 5728 5730 5731 5733 5734 5736 5738 5739 5741 5742 5743 5744 5746 5747 5749 5751 5753 5755 5757 5759 5761 5763 5765 5767 5769 5771 5773 5774 5776 5778 5779 5781 5783 5784 5786 5787 5788 5790 5791 5792 5793 5794 5796 5797 5798 5799 5800 5801 5802 5803 5804 5804 5805 5806 5807 5808
5665 5665 5665 5666 5667 5668 5670 5671 5673 5674 5676 5677 5679 5681 5684 5687 5688 5689 5689 5690 5690 5692 5695 5696 5696 5697 5698 5700 5702 5705 5708 5711 5712 5712 5711 5712 5713 5715 5716 5718 5721 5723 5722 5721 5719 5720 5723 5726 5728 5728 5729 5731 5733 5735 5736 5737 5738 5739 5741 5742 5743 5745 5747 5748 5750 5753 5755 5757 5759 5762 5763 5765 5767 5769 5771 5772 5774 5776 5778 5779 5781 5782 5783 5785 5786 5788 5789 5790 5791 5792 5793 5795 5796 5797 5798 5799 5800 5801 5801 5802 5803 5804 5805
5663 5664 5666 5666 5667 5668 5668 5669 5671 5672 5673 5675 5678 5680 5682 5684 5686 5686 5686 5687 5689 5691 5693 5695 5696 5696 5696 5698 5699 5702 5705 5708 5710 5710 5708 5709 5711 5714 5716 5717 5717 5718 5718 5717 5717 5718 5722 5724 5724 5724 5725 5727 5730 5731 5732 5733 5735 5736 5737 5738 5740 5741 5743 5744 5747 5749 5751 5754 5756 5758 5760 5762 5763 5765 5767 5768 5770 5772 5774 5775 5777 5778 5780 5781 5783 5784 5786 5787 5788 5789 5790 5792 5793 5794 5795 5796 5797 5798 5798 5799 5800 5801 5802
5661 5663 5664 5665 5667 5668 5668 5668 5669 5670 5672 5673 5675 5678 5680 5682 5683 5683 5683 5685 5688 5691 5693 5694 5695 5696 5696 5697 5697 5699 5702 5705 5708 5709 5708 5707 5708 5710 5713 5712 5711 5711 5713 5714 5716 5718 5720 5720 5720 5720 5721 5725 5727 5728 5729 5731 5733 5733 5734 5736 5737 5738 5740 5741 5743 5745 5748 5750 5752 5754 5756 5758 5759 5761 5763 5765 5767 5768 5770 5772 5773 5775 5776 5778 5779 5781 5782 5783 5785 5786 5787 5788 5789 5790 5791 5792 5793 5794 5795 5796 5797 5798 5798
5661 5662 5663 5664 5665 5667 5668 5668 5669 5669 5670 5672 5674 5676 5678 5680 5681 5681 5682 5683 5687 5690 5692 5693 5694 5695 5696 5697 5697 5697 5698 5700 5703 5706 5707 5707 5707 5707 5708 5709 5711 5712 5713 5714 5715 5716 5716 5717 5718 5718 5719 5723 5724 5725 5727 5729 5730 5731 5733 5733 5735 5736 5737 5738 5740 5742 5744 5746 5748 5750 5752 5753 5755 5757 5759 5761 5763 5764 5766 5768 5769 5771 5773 5774 5776 5777 5778 5780 5781 5782 5783 5785 5786 5787 5788 5789 5790 5791 5792 5793 5793 5794 5795
5660 5661 5662 5663 5664 5665 5666 5667 5668 5668 5669 5671 5673 5675 5677 5679 5680 5680 5681 5683 5686 5689 5691 5692 5693 5693 5694 5696 5697 5698 5698 5698 5700 5702 5703 5704 5704 5705 5706 5708 5709 5711 5712 5713 5713 5713 5712 5714 5715 5716 5718 5719 5720 5722 5725 5726 5728 5729 5731 5732 5733 5734 5735 5736 5738 5739 5741 5742 5744 5746 5748 5749 5751 5753 5755 5757 5759 5761 5762 5764 5765 5767 5768 5770 5772 5773 5775 5776 5777 5778 5780 5781 5782 5783 5784 5785 5786 5787 5788 5789 5789 5790 5791
5659 5660 5661 5662 5663 5663 5664 5666 5667 5668 5668 5669 5671 5673 5675 5677 5678 5678 5680 5682 5684 5687 5689 5690 5691 5691 5693 5694 5696 5697 5698 5698 5698 5699 5699 5700 5700 5702 5703 5705 5707 5708 5709 5710 5710 5710 5710 5711 5712 5713 5715 5715 5717 5719 5722 5723 5725 5727 5728 5729 5730 5731 5733 5733 5735 5736 5738 5739 5741 5742 5744 5746 5748 5749 5751 5753 5755 5756 5758 5759 5761 5763 5764 5766 5768 5769 5770 5772 5773 5774 5776 5777 5778 5780 5780 5781 5782 5783 5784 5785 5785 5786 5787
5658 5658 5660 5661 5662 5663 5663 5665 5666 5666 5667 5668 5670 5671 5673 5674 5676 5677 5679 5681 5683 5685 5687 5688 5688 5689 5690 5692 5693 5694 5695 5696 5697 5696 5696 5696 5697 5698 5700 5702 5703 5704 5706 5707 5708 5708 5708 5709 5711 5711 5712 5713 5715 5717 5718 5720 5722 5723 5724 5726 5727 5728 5729 5731 5732 5734 5735 5736 5738 5739 5741 5742 5744 5746 5747 5749 5750 5752 5753 5755 5757 5758 5760 5762 5763 5765 5766 5768 5769 5770 5772 5773 5774 5776 5777 5777 5778 5779 5780 5781 5782 5782 5783